Wind_Speed
12 15 13 9 5 4 7 5 4 6 4 6 5 5 5 5 4 2 6 5 5 3 1 1 1 2 3 5 8 10 11 10 9 9 8 9 10 10 11 10 10 10 11 11 11 10 8 7 6
10 12 8 7 7 7 6 4 4 6 5 4 4 3 4 6 5 5 8 7 6 4 2 1 3 3 3 4 6 8 10 11 11 12 12 12 13 13 12 10 10 9 9 9 9 9 8 8 6
10 12 8 6 5 4 3 4 6 6 4 4 5 1 6 7 5 5 8 7 6 5 3 1 3 4 4 5 6 7 8 9 10 11 11 12 11 11 10 9 8 7 8 8 8 8 8 7 6
9 8 5 7 9 7 6 5 5 4 2 3 5 2 6 6 4 3 8 8 8 5 3 2 3 5 6 7 8 10 10 10 10 10 11 11 10 11 10 9 8 7 7 7 8 8 8 8 7
4 4 3 5 5 5 4 5 6 5 4 4 5 5 8 9 4 4 6 6 7 7 6 5 4 5 6 8 9 11 12 12 12 12 12 12 11 11 12 10 9 8 8 7 7 8 9 9 9
1 2 3 5 6 3 1 1 6 5 8 7 8 8 8 7 5 6 6 6 8 7 6 6 7 6 6 7 9 11 12 13 14 14 14 15 13 13 15 12 11 10 10 9 9 9 9 10 9
2 1 3 3 3 4 3 5 6 6 10 10 11 11 7 7 10 11 12 11 7 8 8 7 7 8 8 8 9 10 12 14 15 16 16 16 16 14 17 15 13 13 12 12 12 10 10 10 10
4 3 3 5 5 5 6 7 7 9 12 15 14 11 11 11 13 15 17 16 13 11 11 10 10 9 9 10 10 11 12 13 15 16 17 17 18 15 17 18 16 15 14 13 13 12 11 11 11
4 4 3 6 6 6 7 9 12 13 14 17 19 14 15 16 17 17 16 16 15 14 15 14 14 14 15 14 14 13 14 14 15 16 17 18 18 16 16 18 18 16 15 14 14 14 13 12 12
7 7 5 7 7 7 9 12 16 16 15 13 16 18 18 19 20 20 19 18 17 19 19 19 19 19 17 17 17 17 17 16 17 17 17 18 19 17 16 18 18 17 17 16 15 15 15 14 14
9 7 7 8 9 11 12 12 16 17 13 15 15 13 16 19 19 20 21 21 22 21 20 21 22 23 24 23 21 20 20 20 19 18 19 20 20 19 18 19 19 19 18 18 18 18 18 17 16
9 7 7 8 11 13 15 14 15 14 8 8 13 15 15 16 17 18 20 23 23 22 23 23 23 23 23 25 26 24 23 23 22 21 21 22 22 22 21 21 21 20 21 21 20 21 21 19 19
16 12 12 12 11 13 15 13 13 6 7 11 10 13 17 20 20 19 18 20 23 24 24 25 24 24 24 24 23 24 25 25 25 25 25 24 24 24 24 24 24 23 23 23 24 24 24 23 22
19 19 18 14 12 16 12 10 10 6 11 15 16 16 15 17 19 21 20 20 21 22 24 24 24 22 23 26 27 27 27 28 28 28 27 27 26 26 26 26 26 26 26 27 27 27 27 27 26
17 19 20 20 9 10 10 13 12 9 14 18 19 18 18 19 21 23 22 19 17 17 18 20 20 18 19 21 23 27 27 29 32 32 30 28 28 28 28 28 28 28 28 30 30 30 30 30 29
22 22 21 8 10 12 13 16 13 13 19 20 20 22 22 23 22 20 18 18 20 20 18 16 16 15 11 11 14 18 21 24 28 32 34 33 31 31 31 30 30 30 31 32 33 32 32 32 32
19 16 17 16 13 14 15 19 15 20 20 20 19 20 23 22 21 19 18 20 19 17 11 9 10 10 8 7 8 9 12 16 20 23 25 29 33 35 36 34 34 33 31 32 34 35 35 34 35
19 15 14 18 20 20 20 25 22 20 24 22 21 19 20 23 25 23 20 17 18 10 9 8 8 9 9 8 7 7 8 10 12 15 17 19 21 24 30 34 36 37 33 35 34 37 38 38 38
17 20 20 23 22 27 28 27 24 24 24 21 19 19 23 26 26 23 21 20 16 10 10 12 11 9 8 7 7 7 7 8 8 9 11 13 16 18 20 24 28 32 33 38 41 41 41 39 40
22 24 29 27 21 26 25 29 29 19 19 19 20 25 25 26 27 23 19 16 15 14 12 10 9 8 8 8 7 8 10 10 11 12 12 12 12 13 16 16 19 21 25 28 32 36 41 43 42
26 26 25 25 25 26 30 35 26 20 20 20 26 23 24 23 22 20 18 17 16 16 15 12 10 10 9 8 9 8 8 8 9 10 12 14 15 16 18 21 22 21 20 21 24 27 31 34 37
26 26 26 27 26 23 14 8 9 18 21 21 22 23 21 18 17 18 20 19 18 18 17 15 14 14 14 10 10 10 9 10 12 14 15 16 17 19 21 23 25 27 28 27 26 26 27 28 30
25 19 13 11 13 16 17 14 10 9 17 24 21 20 19 18 17 19 20 20 20 19 18 17 17 18 17 13 12 13 12 13 14 16 17 18 19 21 22 24 26 28 32 34 35 34 33 33 31
12 12 11 13 16 6 24 22 7 8 13 17 14 14 17 19 20 22 22 21 21 18 18 18 17 17 16 16 15 16 17 18 19 20 22 24 26 27 28 29 28 29 30 32 35 36 39 40 38
19 13 3 3 2 6 9 14 24 13 14 13 11 13 16 20 22 23 21 19 18 17 18 18 19 20 21 21 23 24 26 28 30 30 30 31 31 32 32 31 32 35 36 37 37 37 40 41 43
25 25 11 7 3 4 7 10 10 11 21 18 16 21 19 22 22 19 18 16 15 14 18 22 25 25 27 31 35 41 44 42 41 40 38 38 41 39 39 39 38 36 37 37 39 40 42 43 44
21 31 28 19 15 8 13 20 23 16 20 19 20 25 20 15 13 12 10 13 16 20 23 26 30 32 34 38 42 44 44 43 42 43 45 46 48 47 44 42 40 40 40 39 39 40 42 43 44
29 21 12 13 2 4 8 13 19 16 14 17 16 12 13 11 10 12 15 19 22 25 28 30 34 38 41 43 44 46 45 45 46 48 47 48 45 43 43 42 42 41 41 42 43 44 43 44 45
27 29 21 18 21 5 2 13 14 14 17 15 15 13 13 15 16 19 24 28 33 37 38 37 38 40 44 46 46 44 44 46 46 45 44 43 42 41 41 43 43 44 44 45 47 48 49 51 52
30 32 31 27 14 14 15 32 21 20 16 16 15 19 18 20 24 29 35 41 40 38 36 36 37 36 37 38 40 41 44 44 41 39 38 37 38 39 41 42 43 45 47 49 51 52 52 53 54
Wind_Direction
126 128 134 131 119 109 105 97 45 29 39 35 46 60 80 73 72 40 16 4 2 20 0 232 215 150 151 172 190 203 211 220 231 240 241 237 242 263 276 278 276 279 280 284 281 281 280 279 282
136 144 128 127 121 116 100 86 41 20 27 34 31 43 57 34 40 43 42 24 6 6 356 230 234 218 202 193 205 212 221 228 233 237 239 245 255 265 269 272 277 279 278 279 280 279 279 277 278
134 139 121 116 125 80 62 14 347 352 12 23 19 331 15 8 27 67 31 23 6 0 352 300 244 243 239 242 238 230 229 231 233 238 242 248 253 261 268 273 272 269 274 275 276 274 275 273 278
139 159 122 120 114 93 63 21 6 27 37 31 10 27 360 1 360 342 358 9 14 3 343 320 271 241 242 247 249 252 250 247 248 248 246 247 248 253 257 261 266 265 268 276 273 272 270 272 272
139 175 165 161 140 119 55 44 32 6 347 350 356 328 329 336 322 320 321 325 354 351 329 312 289 272 254 244 248 253 257 261 262 260 262 262 256 253 254 257 257 258 261 265 271 275 274 270 266
145 199 196 151 153 157 76 347 344 323 337 340 336 329 316 307 280 282 282 297 322 326 331 312 298 289 276 264 253 252 256 257 258 261 263 264 259 259 259 259 262 267 274 279 277 277 277 277 277
309 261 216 194 173 178 211 275 296 300 330 320 325 325 291 249 274 281 287 289 292 302 304 300 289 285 279 268 261 257 255 256 258 260 259 259 261 256 263 265 267 267 270 277 280 279 279 281 281
297 273 213 208 198 198 243 269 287 295 313 313 319 315 277 260 264 278 287 295 300 300 293 288 282 278 280 279 274 267 262 260 262 261 262 263 263 258 262 266 267 269 270 273 276 276 277 282 284
294 278 242 224 225 228 252 272 287 295 307 313 307 290 280 273 269 271 269 270 271 271 270 271 276 280 284 285 284 279 273 268 263 263 266 265 265 262 261 265 268 268 271 273 276 278 276 276 279
284 278 264 250 248 261 279 289 292 296 302 296 286 290 286 280 282 281 275 270 269 273 271 271 267 262 262 269 274 277 278 275 274 269 266 266 268 268 265 265 267 271 272 271 270 272 274 273 275
286 280 268 263 265 281 288 288 294 297 292 293 287 284 281 286 285 286 287 284 282 281 279 277 275 272 272 267 265 269 270 270 270 270 269 266 263 262 260 261 264 266 266 267 268 267 266 268 270
276 276 268 266 279 280 283 287 293 297 302 263 278 286 286 286 283 284 288 291 289 287 286 281 276 274 271 272 271 266 264 266 268 267 266 264 264 262 259 257 257 257 258 261 263 263 262 261 262
286 282 279 275 276 271 276 285 279 278 300 299 287 280 288 291 292 297 294 290 289 288 285 280 274 271 272 270 266 269 267 265 261 262 262 262 262 261 260 257 257 257 255 254 255 257 260 258 257
288 291 293 292 291 278 273 266 279 264 300 304 295 292 290 291 300 301 298 298 296 293 291 286 282 279 271 268 268 263 262 263 261 259 258 260 261 259 260 258 258 258 259 258 255 254 256 258 258
282 287 287 296 276 268 257 268 278 251 291 299 293 290 292 296 293 297 301 302 301 297 296 293 289 285 281 273 268 266 260 261 263 262 258 256 258 259 259 259 258 256 254 257 258 258 258 258 258
282 286 294 242 283 261 261 275 273 271 291 295 289 291 297 299 304 308 309 304 307 306 295 286 287 292 287 276 271 272 272 266 260 261 263 263 261 260 259 258 257 255 254 252 256 257 259 260 261
275 270 280 279 283 268 261 280 280 285 291 285 282 291 297 303 306 308 310 312 316 313 313 297 288 292 290 282 278 273 271 272 273 270 265 264 267 269 269 268 264 260 257 256 256 255 256 257 259
282 273 262 273 291 281 268 274 284 281 289 276 280 290 294 296 299 304 306 316 325 307 301 294 283 281 277 281 279 273 272 276 283 285 286 284 278 273 271 270 266 266 262 261 258 255 254 252 253
264 263 270 279 288 274 274 276 277 286 275 259 278 292 294 292 296 297 296 308 318 289 278 277 279 266 265 274 288 298 292 299 297 292 297 301 300 296 287 279 276 275 268 264 263 263 260 256 254
260 264 271 279 280 278 284 284 291 268 256 263 273 281 276 279 288 290 290 294 297 278 267 268 270 270 276 286 285 285 293 300 301 313 319 322 324 322 321 316 305 295 288 280 274 271 271 269 264
260 264 270 279 283 282 287 290 280 259 263 264 274 269 269 276 280 281 287 287 278 264 265 271 277 283 285 278 280 281 275 289 300 306 306 312 316 321 322 322 321 319 315 308 298 288 283 277 272
252 261 270 276 273 270 263 280 253 269 264 267 262 267 273 275 274 277 280 279 269 263 264 267 275 286 289 274 277 281 284 289 292 294 296 299 302 305 307 308 308 310 311 310 307 304 301 298 291
261 272 256 259 261 261 253 270 267 210 259 269 259 268 266 271 269 273 269 268 261 256 260 270 277 279 275 267 273 276 281 289 294 299 301 298 299 300 299 299 299 297 299 303 304 302 298 295 293
245 229 253 266 269 264 263 242 219 256 244 244 250 258 269 274 267 267 263 250 250 258 274 281 269 261 261 267 276 284 286 288 289 292 294 297 300 301 304 303 301 297 296 298 300 297 297 295 292
213 211 276 295 260 239 258 235 250 237 227 215 249 247 267 265 263 261 256 252 259 271 278 281 277 277 281 285 290 291 294 297 299 301 304 303 304 305 305 302 301 298 298 295 292 294 293 290 288
217 217 192 217 212 257 272 245 259 243 240 250 240 265 253 264 263 257 254 260 267 278 289 295 293 291 290 294 300 303 305 306 307 308 308 308 308 306 304 302 299 292 289 284 280 278 280 281 277
224 225 233 245 271 288 260 266 267 247 250 254 249 264 261 246 247 252 253 276 294 298 295 291 291 291 290 291 294 295 298 302 305 306 304 303 301 300 301 298 294 289 285 280 272 270 270 269 267
232 243 218 215 239 245 258 263 251 268 265 266 246 226 233 234 247 263 281 293 296 296 296 291 289 288 288 290 294 296 298 300 302 302 301 300 299 298 296 294 293 291 287 284 280 278 276 273 272
237 233 224 235 234 196 240 266 270 277 266 249 229 228 243 259 266 275 287 294 297 298 296 292 287 284 283 287 292 296 298 302 304 300 298 297 296 294 292 292 292 292 290 289 287 284 281 278 277
234 242 246 235 244 234 245 260 265 270 250 244 247 277 276 277 281 287 292 296 297 297 295 293 293 293 295 295 296 296 299 300 297 294 294 294 295 295 295 294 293 291 290 289 287 285 283 281 278
Height
3174 3174 3175 3176 3181 3178 3178 3180 3179 3179 3179 3178 3177 3177 3177 3176 3176 3180 3176 3175 3174 3174 3173 3173 3173 3173 3174 3175 3176 3178 3179 3180 3181 3182 3182 3183 3183 3183 3183 3183 3183 3183 3182 3182 3182 3182 3181 3181 3181
3175 3175 3176 3176 3179 3178 3179 3179 3180 3180 3180 3179 3178 3178 3178 3178 3177 3177 3177 3176 3175 3175 3175 3174 3175 3174 3174 3174 3176 3177 3178 3179 3180 3181 3182 3182 3182 3183 3182 3182 3182 3182 3181 3181 3181 3181 3181 3181 3180
3176 3176 3178 3178 3178 3179 3180 3180 3180 3180 3180 3179 3179 3179 3179 3178 3177 3177 3177 3177 3176 3175 3175 3175 3175 3176 3175 3175 3176 3176 3177 3178 3179 3180 3180 3181 3181 3181 3181 3181 3181 3181 3181 3181 3181 3180 3180 3180 3180
3177 3178 3179 3179 3179 3180 3180 3180 3179 3179 3180 3180 3179 3179 3179 3178 3178 3177 3177 3176 3176 3175 3175 3175 3175 3175 3176 3176 3176 3177 3177 3178 3178 3179 3179 3180 3180 3180 3180 3180 3180 3180 3180 3180 3180 3180 3180 3180 3180
3178 3178 3178 3178 3178 3179 3180 3180 3180 3180 3180 3180 3180 3179 3179 3178 3177 3176 3176 3175 3175 3175 3174 3174 3174 3175 3175 3176 3176 3177 3177 3178 3178 3178 3179 3179 3180 3179 3179 3180 3180 3179 3180 3180 3180 3179 3180 3180 3180
3178 3178 3178 3177 3178 3179 3179 3179 3179 3179 3179 3179 3179 3179 3179 3177 3176 3175 3174 3174 3174 3173 3173 3173 3173 3174 3174 3175 3175 3176 3176 3177 3177 3177 3178 3178 3179 3179 3179 3180 3180 3180 3180 3180 3179 3179 3179 3179 3179
3177 3178 3177 3178 3178 3179 3179 3179 3179 3179 3178 3178 3178 3177 3177 3175 3174 3173 3172 3172 3172 3172 3172 3171 3171 3172 3172 3173 3173 3174 3174 3174 3175 3175 3176 3176 3177 3178 3177 3178 3178 3178 3179 3179 3178 3178 3178 3178 3178
3176 3177 3177 3177 3178 3178 3178 3178 3178 3178 3178 3176 3175 3175 3174 3174 3173 3172 3171 3171 3172 3172 3171 3171 3171 3170 3170 3171 3171 3171 3172 3172 3172 3173 3173 3174 3174 3176 3176 3175 3176 3177 3177 3177 3177 3177 3177 3177 3178
3176 3176 3176 3176 3177 3177 3177 3177 3177 3177 3176 3174 3171 3171 3170 3169 3169 3169 3169 3168 3168 3168 3168 3168 3169 3169 3169 3170 3170 3170 3170 3170 3170 3170 3170 3171 3171 3173 3173 3173 3173 3174 3174 3174 3175 3175 3175 3175 3175
3175 3175 3174 3175 3176 3176 3176 3175 3173 3174 3173 3172 3169 3167 3167 3166 3165 3165 3165 3166 3165 3165 3165 3166 3166 3165 3165 3166 3167 3167 3167 3167 3167 3167 3168 3168 3168 3170 3171 3170 3171 3171 3171 3171 3171 3171 3172 3173 3173
3173 3174 3173 3173 3174 3174 3174 3173 3171 3170 3170 3168 3166 3166 3164 3163 3163 3162 3161 3162 3161 3161 3161 3161 3162 3162 3162 3162 3162 3163 3163 3163 3164 3164 3164 3164 3165 3165 3166 3167 3167 3168 3168 3168 3168 3168 3168 3169 3169
3171 3172 3172 3172 3172 3171 3170 3169 3168 3167 3166 3165 3164 3163 3162 3161 3161 3161 3160 3159 3159 3159 3158 3157 3157 3158 3158 3158 3158 3158 3158 3159 3159 3159 3159 3160 3160 3161 3162 3162 3162 3163 3163 3164 3164 3164 3164 3165 3165
3167 3169 3169 3169 3169 3167 3167 3167 3165 3165 3163 3162 3162 3162 3160 3159 3158 3158 3158 3156 3155 3153 3153 3152 3152 3153 3152 3153 3153 3153 3153 3153 3153 3154 3154 3155 3155 3156 3157 3157 3157 3158 3158 3159 3159 3159 3159 3160 3160
3164 3164 3164 3164 3165 3163 3163 3163 3162 3163 3161 3159 3158 3157 3157 3156 3155 3153 3152 3151 3150 3149 3148 3147 3147 3147 3147 3147 3147 3147 3147 3148 3148 3147 3148 3149 3149 3150 3150 3151 3152 3153 3153 3153 3153 3153 3153 3154 3155
3161 3160 3160 3160 3159 3160 3160 3161 3161 3160 3158 3156 3155 3154 3154 3154 3152 3150 3148 3147 3146 3144 3143 3142 3141 3141 3141 3142 3141 3141 3141 3142 3143 3143 3142 3142 3143 3144 3144 3145 3146 3146 3147 3146 3147 3148 3148 3148 3149
3158 3157 3156 3157 3157 3156 3157 3157 3158 3157 3155 3153 3152 3150 3149 3149 3148 3147 3146 3145 3143 3140 3138 3138 3137 3136 3136 3136 3137 3136 3137 3136 3136 3137 3138 3139 3138 3138 3137 3138 3139 3139 3140 3140 3139 3140 3141 3142 3143
3153 3154 3154 3154 3154 3154 3154 3153 3156 3152 3151 3150 3148 3147 3145 3143 3143 3142 3141 3140 3139 3137 3136 3135 3134 3134 3133 3133 3133 3132 3132 3132 3132 3131 3132 3133 3133 3133 3133 3133 3133 3132 3133 3133 3133 3133 3133 3134 3134
3150 3150 3150 3151 3151 3148 3147 3146 3149 3149 3146 3144 3144 3143 3142 3139 3137 3136 3136 3135 3135 3134 3133 3133 3133 3132 3131 3131 3129 3128 3127 3127 3127 3127 3127 3127 3127 3127 3126 3125 3125 3126 3126 3126 3125 3124 3124 3125 3125
3146 3145 3146 3147 3148 3143 3142 3140 3142 3143 3141 3140 3140 3137 3135 3133 3132 3132 3133 3132 3132 3131 3131 3131 3131 3129 3129 3128 3127 3126 3125 3123 3123 3122 3122 3122 3122 3122 3121 3120 3119 3118 3118 3118 3117 3117 3116 3116 3116
3141 3141 3140 3141 3143 3138 3137 3134 3137 3136 3133 3135 3135 3132 3129 3127 3127 3127 3127 3129 3128 3129 3130 3128 3127 3127 3126 3125 3125 3123 3122 3121 3121 3119 3118 3118 3117 3117 3116 3116 3115 3114 3113 3111 3110 3108 3108 3109 3109
3136 3136 3136 3137 3137 3135 3131 3125 3129 3130 3130 3129 3128 3127 3125 3123 3123 3123 3124 3125 3126 3126 3126 3126 3125 3125 3125 3123 3122 3121 3119 3118 3117 3117 3115 3114 3113 3112 3112 3112 3111 3110 3109 3107 3105 3102 3100 3099 3100
3129 3131 3131 3130 3129 3127 3127 3120 3119 3124 3124 3123 3122 3121 3121 3120 3119 3119 3120 3122 3122 3122 3123 3123 3122 3122 3122 3121 3121 3119 3118 3116 3114 3113 3112 3112 3110 3109 3107 3106 3105 3105 3104 3103 3101 3099 3096 3093 3092
3126 3128 3127 3127 3126 3123 3124 3122 3110 3115 3118 3116 3117 3118 3117 3117 3116 3115 3115 3116 3117 3118 3119 3118 3118 3118 3117 3116 3116 3115 3114 3112 3111 3110 3109 3107 3107 3105 3103 3101 3100 3098 3097 3096 3095 3093 3091 3088 3087
3122 3126 3126 3124 3124 3120 3117 3117 3106 3108 3111 3112 3113 3115 3116 3116 3113 3112 3112 3112 3112 3114 3115 3114 3113 3112 3111 3111 3111 3112 3108 3108 3107 3106 3105 3103 3101 3099 3098 3096 3093 3092 3090 3089 3088 3086 3084 3081 3079
3117 3120 3124 3124 3123 3114 3111 3109 3101 3103 3105 3107 3109 3111 3112 3111 3110 3109 3109 3110 3109 3109 3109 3109 3108 3108 3106 3106 3106 3106 3104 3102 3101 3099 3098 3096 3092 3091 3089 3088 3087 3085 3083 3081 3080 3078 3076 3074 3072
3109 3112 3113 3118 3119 3110 3108 3101 3096 3096 3098 3101 3102 3104 3104 3105 3106 3107 3106 3106 3105 3104 3104 3104 3103 3101 3100 3099 3098 3095 3094 3092 3090 3088 3086 3085 3080 3079 3078 3077 3076 3074 3073 3071 3069 3068 3066 3064 3062
3108 3107 3108 3107 3108 3110 3101 3094 3093 3097 3096 3097 3098 3097 3097 3099 3100 3101 3102 3102 3101 3100 3099 3098 3096 3094 3092 3091 3089 3087 3083 3081 3079 3077 3075 3073 3071 3070 3067 3066 3064 3063 3061 3059 3058 3056 3053 3051 3048
3103 3103 3106 3106 3109 3109 3092 3090 3084 3089 3093 3091 3092 3095 3095 3095 3096 3097 3097 3097 3096 3095 3094 3092 3090 3087 3084 3082 3079 3076 3074 3072 3070 3068 3066 3064 3062 3059 3057 3055 3053 3052 3048 3046 3045 3044 3041 3040 3038
3097 3097 3096 3100 3096 3092 3093 3082 3082 3084 3087 3088 3088 3091 3092 3092 3091 3091 3091 3091 3089 3087 3085 3083 3081 3079 3077 3074 3071 3069 3066 3063 3061 3060 3058 3055 3052 3049 3048 3046 3044 3041 3037 3035 3032 3031 3028 3027 3025
3088 3089 3089 3089 3088 3086 3084 3074 3078 3080 3082 3084 3085 3086 3086 3086 3085 3084 3082 3082 3080 3078 3076 3074 3071 3068 3066 3064 3063 3061 3059 3056 3054 3051 3048 3046 3043 3040 3038 3035 3033 3030 3026 3023 3019 3016 3014 3012 3010